Weather History for Sidney-Richland, MT

Change the Weather History Date:

Thursday, November 15, 2012

  Actual Average Record
Temperature  
Mean Temperature 22 °F -  
Max Temperature 35 °F 41 °F 68 °F (1953)
Min Temperature 8 °F 19 °F -10 °F (1959)
Degree Days  
Heating Degree Days 44    
Moisture  
Dew Point 18 °F    
Average Humidity 85    
Maximum Humidity 100    
Minimum Humidity 73    
Precipitation  
Precipitation 0.01 in - - ()
Sea Level Pressure  
Sea Level Pressure 30.28 in    
Wind  
Wind Speed 4 mph (SSW)    
Max Wind Speed 10 mph    
Max Gust Speed -    
Visibility 10 miles    
Events      
Averages and records for this station are not official NWS values.
T = Trace of Precipitation, MM = Missing Value Source: NWS Daily Summary

Daily Weather History Graph

Daily Weather History Graph

Search for Another Location

Airport:

Trip Planner

Search our weather history database for the weather conditions in past years. The results will help you decide how hot, cold, wet, or windy it might be!

Date:

Astronomy

Nov. 15, 2012 Rise Set
Actual Time 7:03 AM MST 4:19 PM MST
Civil Twilight 6:29 AM MST 4:53 PM MST
Nautical Twilight 5:51 AM MST 5:30 PM MST
Astronomical Twilight 5:15 AM MST 6:07 PM MST
Moon 9:06 AM MST (11/15) 6:08 PM MST (11/15)
Length of Visible Light 10h 23m
Length of Day
9h 16m
Waxing Crescent, 5% of the Moon is Illuminated
Nov 15
Waxing Crescent
Nov 20
First Quarter
Nov 28
Full
Dec 6
Last Quarter
Dec 13
New

Hourly Weather History & Observations

Time (MST) Temp. Windchill Dew Point Humidity Pressure Visibility Wind Dir Wind Speed Gust Speed Precip Events Conditions
12:15 AM 24.8 °F 15.3 °F 19.4 °F 80% 30.24 in 10.0 mi NW 9.2 mph - N/A   Clear
12:35 AM 24.8 °F 14.6 °F 19.4 °F 80% 30.24 in 10.0 mi NNW 10.4 mph - N/A   Clear
12:55 AM 24.8 °F 15.3 °F 19.4 °F 80% 30.25 in 10.0 mi NW 9.2 mph - N/A   Clear
1:35 AM 21.2 °F 13.6 °F 17.6 °F 86% 30.26 in 10.0 mi WNW 5.8 mph - N/A   Clear
1:55 AM 21.2 °F - 17.6 °F 86% 30.28 in 10.0 mi Calm Calm - N/A   Clear
2:15 AM 21.2 °F - 17.6 °F 86% 30.29 in 10.0 mi Calm Calm - N/A   Clear
2:35 AM 19.4 °F 14.3 °F 15.8 °F 86% 30.30 in 10.0 mi SW 3.5 mph - N/A   Clear
2:55 AM 17.6 °F 12.3 °F 15.8 °F 93% 30.31 in 10.0 mi SW 3.5 mph - N/A   Clear
3:15 AM 15.8 °F 10.2 °F 10.4 °F 79% 30.31 in 10.0 mi South 3.5 mph - N/A   Clear
3:35 AM 14.0 °F 6.5 °F 10.4 °F 86% 30.31 in 10.0 mi South 4.6 mph - N/A   Clear
3:55 AM 14.0 °F 8.2 °F 10.4 °F 86% 30.31 in 10.0 mi South 3.5 mph - N/A   Clear
4:35 AM 10.4 °F 4.0 °F 6.8 °F 85% 30.32 in 10.0 mi SSW 3.5 mph - N/A   Clear
4:55 AM 10.4 °F - 3.2 °F 73% 30.32 in 10.0 mi Calm Calm - N/A   Clear
5:15 AM 10.4 °F - 5.0 °F 79% 30.32 in 10.0 mi Calm Calm - N/A   Clear
5:35 AM 12.2 °F - 10.4 °F 92% 30.33 in 10.0 mi Calm Calm - N/A   Clear
5:55 AM 10.4 °F - 8.6 °F 92% 30.33 in 10.0 mi Calm Calm - N/A   Clear
6:15 AM 10.4 °F - 6.8 °F 85% 30.34 in 10.0 mi Calm Calm - N/A   Clear
6:35 AM 8.6 °F - 3.2 °F 79% 30.34 in 10.0 mi Calm Calm - N/A   Clear
6:55 AM 10.4 °F - 6.8 °F 85% 30.34 in 10.0 mi Calm Calm - N/A   Clear
7:15 AM 8.6 °F - 6.8 °F 92% 30.35 in 10.0 mi Calm Calm - N/A   Clear
7:35 AM 10.4 °F - 6.8 °F 85% 30.36 in 10.0 mi Calm Calm - N/A   Clear
7:55 AM 10.4 °F - 8.6 °F 92% 30.36 in 10.0 mi Calm Calm - N/A   Clear
8:15 AM 10.4 °F 4.0 °F 6.8 °F 85% 30.36 in 10.0 mi SSW 3.5 mph - N/A   Clear
8:35 AM 14.0 °F 5.1 °F 12.2 °F 93% 30.36 in 10.0 mi SSW 5.8 mph - N/A   Clear
9:15 AM 17.6 °F 10.7 °F 12.2 °F 79% 30.37 in 10.0 mi South 4.6 mph - N/A   Clear
9:35 AM 17.6 °F 12.3 °F 14.0 °F 86% 30.37 in 10.0 mi South 3.5 mph - N/A   Clear
9:55 AM 19.4 °F 14.3 °F 17.6 °F 93% 30.37 in 10.0 mi South 3.5 mph - N/A   Clear
10:15 AM 19.4 °F 14.3 °F 17.6 °F 93% 30.37 in 10.0 mi SW 3.5 mph - N/A   Clear
10:55 AM 24.8 °F 19.1 °F 19.4 °F 80% 30.35 in 10.0 mi South 4.6 mph - N/A   Clear
11:15 AM 26.6 °F 22.6 °F 19.4 °F 74% 30.34 in 10.0 mi South 3.5 mph - N/A   Clear
11:35 AM 26.6 °F 21.2 °F 21.2 °F 80% 30.34 in 10.0 mi South 4.6 mph - N/A   Clear
11:55 AM 26.6 °F 22.6 °F 21.2 °F 80% 30.33 in 10.0 mi SSW 3.5 mph - N/A   Clear
12:15 PM 28.4 °F 24.6 °F 24.8 °F 86% 30.32 in 10.0 mi SSW 3.5 mph - N/A   Clear
12:35 PM 30.2 °F 24.3 °F 24.8 °F 80% 30.31 in 10.0 mi SSW 5.8 mph - N/A   Clear
12:55 PM 30.2 °F 24.3 °F 24.8 °F 80% 30.30 in 10.0 mi SSW 5.8 mph - N/A   Clear
1:15 PM 32.0 °F 25.6 °F 24.8 °F 75% 30.29 in 10.0 mi SSW 6.9 mph - N/A   Clear
1:35 PM 33.8 °F 29.6 °F 26.6 °F 75% 30.29 in 10.0 mi SSW 4.6 mph - N/A   Clear
1:55 PM 33.8 °F 29.6 °F 26.6 °F 75% 30.28 in 10.0 mi SSW 4.6 mph - N/A   Clear
2:15 PM 35.6 °F 31.7 °F 28.4 °F 75% 30.28 in 10.0 mi South 4.6 mph - N/A   Clear
2:35 PM 33.8 °F 30.8 °F 26.6 °F 75% 30.28 in 10.0 mi SSW 3.5 mph - N/A   Clear
2:55 PM 33.8 °F 28.6 °F 28.4 °F 81% 30.27 in 10.0 mi South 5.8 mph - N/A   Clear
3:15 PM 33.8 °F - 28.4 °F 81% 30.27 in 10.0 mi Calm Calm - N/A   Clear
3:35 PM 33.8 °F - 26.6 °F 75% 30.27 in 10.0 mi Calm Calm - N/A   Clear
3:55 PM 30.2 °F - 24.8 °F 80% 30.26 in 10.0 mi Calm Calm - 0.01 in   Clear
4:15 PM 28.4 °F - 23.0 °F 80% 30.25 in 10.0 mi Calm Calm - N/A   Clear
4:35 PM 26.6 °F - 24.8 °F 93% 30.25 in 10.0 mi Calm Calm - N/A   Clear
5:15 PM 26.6 °F - 26.6 °F 100% 30.23 in 10.0 mi Calm Calm - N/A   Clear
5:35 PM 26.6 °F - 24.8 °F 93% 30.23 in 10.0 mi Calm Calm - N/A   Clear
5:55 PM 24.8 °F - 19.4 °F 80% 30.23 in 10.0 mi Calm Calm - N/A   Clear
6:15 PM 24.8 °F - 21.2 °F 86% 30.22 in 10.0 mi Calm Calm - N/A   Clear
6:55 PM 23.0 °F - 19.4 °F 86% 30.21 in 10.0 mi Calm Calm - N/A   Clear
7:15 PM 21.2 °F - 19.4 °F 93% 30.21 in 10.0 mi Calm Calm - N/A   Clear
7:35 PM 21.2 °F - 17.6 °F 86% 30.21 in 10.0 mi Calm Calm - N/A   Clear
7:55 PM 19.4 °F - 15.8 °F 86% 30.21 in 10.0 mi Calm Calm - N/A   Clear
8:15 PM 21.2 °F - 17.6 °F 86% 30.21 in 10.0 mi Calm Calm - N/A   Clear
8:35 PM 19.4 °F - 17.6 °F 93% 30.21 in 10.0 mi Calm Calm - N/A   Clear
8:55 PM 21.2 °F - 19.4 °F 93% 30.20 in 3.0 mi Calm Calm - N/A   Clear
9:15 PM 19.4 °F - 17.6 °F 93% 30.20 in 5.0 mi Calm Calm - N/A   Clear
9:55 PM 21.2 °F 13.6 °F 21.2 °F 100% 30.19 in 10.0 mi SSW 5.8 mph - N/A   Clear
10:15 PM 23.0 °F 15.8 °F 19.4 °F 86% 30.18 in 10.0 mi SSW 5.8 mph - N/A   Clear
10:35 PM 21.2 °F - 19.4 °F 93% 30.17 in 10.0 mi Calm Calm - N/A   Clear
10:55 PM 23.0 °F - 21.2 °F 93% 30.16 in 10.0 mi Calm Calm - N/A   Clear
11:15 PM 23.0 °F 17.0 °F 21.2 °F 93% 30.15 in 10.0 mi SW 4.6 mph - N/A   Clear
11:35 PM 24.8 °F - 21.2 °F 86% 30.14 in 9.0 mi Calm Calm - N/A   Clear
11:55 PM 24.8 °F - 23.0 °F 93% 30.14 in 10.0 mi Calm Calm - N/A   Clear